Find Local Weather

World > North America > United States > Wisconsin

Shawano, Wisconsin Regional Weather

Lat: 44.78N, Lon: 88.59W
Wx Zone: WIZ031
Warning FLW WEATHER ALERT - (More Info. Click Here) Warning
Feedback
Expires:201809251600;;190435
ASUS43 KMKX 251500
RWRWI 

WISCONSIN REGIONAL WEATHER ROUNDUP
NATIONAL WEATHER SERVICE MILWAUKEE/SULLIVAN WI
1000 AM CDT TUE SEP 25 2018

NOTE: "FAIR" INDICATES FEW OR NO CLOUDS BELOW 12,000 FEET WITH NO
SIGNIFICANT WEATHER AND/OR OBSTRUCTIONS TO VISIBILITY.


WIZ011>013-019>022-031-037>040-048>050-251600-
NORTHEAST WISCONSIN
  
CITY           SKY/WX    TMP DP  RH WIND       PRES   REMARKS
ANTIGO         CLOUDY    63  60  91 NW8       29.85S                  
SHAWANO        CLOUDY    67  63  87 W3        29.83F                  
OCONTO         CLOUDY    63  63  98 CALM      29.83F                  
STURGEON BAY   FAIR      71  64  78 SW10      29.84S                  
GREEN BAY      PTSUNNY   70  64  81 SW5       29.83F                  
MANITOWOC      FAIR      69  66  90 SW6       29.85F                  
APPLETON       PTSUNNY   66  64  94 W8        29.83F                  
CLINTONVILLE   CLOUDY    65  61  86 W7        29.84S                  
OSHKOSH        CLOUDY    66  64  93 SW7       29.84F                  
$$
 

SKY/WX - Weather  TMP - Temperature  DP - Dew Point  RH - Relative Humidity
WIND - Wind Direction/Speed PRES - Barometric Pressure